Louisville Bowman, KY

4:57 AM EDT on June 26, 2019 (GMT -0400)
Bowman

Weather History for KLOU - May, 2019

Change the Weather History Date:

Wednesday, May 22, 2019

  Actual Average Record
Temperature  
Mean Temperature 75 °F 68 °F  
Max Temperature 83 °F 78 °F 90 °F (1958)
Min Temperature 66 °F 58 °F 39 °F (2002)
Degree Days  
Heating Degree Days 0 2  
Month to date heating degree days 47 65  
Since 1 July heating degree days 4101 4256  
Cooling Degree Days 10 5  
Month to date cooling degree days 71 63  
Year to date cooling degree days 88 97  
Growing Degree Days 24 (Base 50)    
Moisture  
Dew Point 64 °F    
Average Humidity 73    
Maximum Humidity 84    
Minimum Humidity 62    
Precipitation  
Precipitation 0.01 in 0.15 in 1.99 in (1957)
Month to date precipitation 2.73 3.79  
Year to date precipitation 26.14 18.59  
Sea Level Pressure  
Sea Level Pressure 29.97 in    
Wind  
Wind Speed 8 mph (South)    
Max Wind Speed 18 mph    
Max Gust Speed 26 mph    
Visibility 10 miles    
Events Rain    
T = Trace of Precipitation, MM = Missing Value Source: NWS Daily Summary

Daily Weather History Graph

Daily Weather History Graph

Search for Another Location

Airport or City:

Astronomy

May. 22, 2019 Rise Set
Actual Time 6:26 AM EDT 8:52 PM EDT
Civil Twilight 5:56 AM EDT 9:22 PM EDT
Nautical Twilight 5:18 AM EDT 10:00 PM EDT
Astronomical Twilight 4:37 AM EDT 10:41 PM EDT
Moon No Moon Rise 9:34 AM EDT (5/22)
Length of Visible Light 15h 26m
Length of Day
14h 26m
Waning Gibbous, 85% of the Moon is Illuminated
May 22
Waning Gibbous
May 26
Last Quarter
Jun 3
New
Jun 10
First Quarter
Jun 17
Full

Hourly Weather History & Observations

Time (EDT) Temp. Heat Index Dew Point Humidity Pressure Visibility Wind Dir Wind Speed Gust Speed Precip Events Conditions
12:53 AM 68.0 °F - 55.0 °F 63% 29.90 in 10.0 mi ESE 16.1 mph 23.0 mph N/A   Clear
1:53 AM 68.0 °F - 55.9 °F 65% 29.91 in 10.0 mi ESE 11.5 mph 20.7 mph N/A   Clear
2:53 AM 66.9 °F - 55.9 °F 68% 29.91 in 10.0 mi ESE 5.8 mph - N/A   Mostly Cloudy
3:53 AM 66.9 °F - 55.9 °F 68% 29.91 in 10.0 mi SE 8.1 mph - N/A   Scattered Clouds
4:53 AM 66.9 °F - 55.9 °F 68% 29.91 in 10.0 mi ESE 6.9 mph - N/A   Scattered Clouds
5:53 AM 69.1 °F - 57.0 °F 65% 29.90 in 10.0 mi SE 11.5 mph - N/A   Clear
6:53 AM 68.0 °F - 57.0 °F 68% 29.92 in 10.0 mi SE 4.6 mph - N/A   Clear
7:53 AM 70.0 °F - 59.0 °F 68% 29.93 in 10.0 mi SE 6.9 mph - N/A   Partly Cloudy
8:53 AM 73.9 °F - 62.1 °F 66% 29.94 in 10.0 mi South 8.1 mph - N/A   Clear
9:53 AM 78.1 °F - 64.0 °F 62% 29.95 in 10.0 mi South 12.7 mph - N/A   Clear
10:53 AM 80.1 °F 82.1 °F 66.0 °F 62% 29.97 in 10.0 mi SSW 13.8 mph 23.0 mph N/A   Clear
11:53 AM 79.0 °F - 64.9 °F 62% 29.99 in 10.0 mi SW 12.7 mph 20.7 mph N/A   Overcast
12:53 PM 81.0 °F 83.3 °F 66.9 °F 62% 29.99 in 10.0 mi West 9.2 mph - N/A   Overcast
1:53 PM 81.0 °F 83.3 °F 66.9 °F 62% 29.99 in 10.0 mi SW 9.2 mph - N/A   Scattered Clouds
2:53 PM 81.0 °F 83.8 °F 68.0 °F 65% 29.99 in 10.0 mi West 4.6 mph - N/A   Mostly Cloudy
3:53 PM 79.0 °F - 66.9 °F 66% 29.98 in 10.0 mi NW 5.8 mph - N/A   Overcast
4:53 PM 78.1 °F - 69.1 °F 74% 29.99 in 8.0 mi Calm Calm - 0.01 in Rain Light Rain
5:53 PM 79.0 °F - 71.1 °F 77% 30.00 in 10.0 mi SSW 5.8 mph - 0.00 in   Overcast
6:53 PM 80.1 °F 83.6 °F 71.1 °F 74% 30.00 in 10.0 mi South 5.8 mph - N/A   Overcast
7:53 PM 80.1 °F 83.2 °F 70.0 °F 71% 30.00 in 10.0 mi SSW 12.7 mph - N/A   Overcast
8:53 PM 79.0 °F - 68.0 °F 69% 30.01 in 10.0 mi SSW 9.2 mph - N/A   Mostly Cloudy
9:53 PM 75.9 °F - 68.0 °F 76% 30.02 in 10.0 mi SSE 5.8 mph - 0.00 in   Clear
10:53 PM 75.9 °F - 68.0 °F 76% 30.03 in 10.0 mi SSE 3.5 mph - N/A   Partly Cloudy
11:53 PM 73.9 °F - 68.0 °F 82% 30.02 in 10.0 mi SSE 4.6 mph - N/A   Partly Cloudy